Theta_e
335 335 335 337 342 347 350 351 350 351 352 353 351 350 351 350 350 352 351 347 342 343 344 345 345 344 345 345 344 347 346 346 353 352 344 345 347 351 354 352 352 351
334 335 336 337 340 345 347 350 351 350 350 351 350 349 349 349 348 347 347 345 342 343 343 343 344 344 345 346 343 345 345 342 349 353 347 345 348 352 354 352 351 351
333 334 335 337 340 342 344 349 350 349 349 350 350 348 348 349 348 343 340 342 342 344 344 340 342 343 343 346 344 345 346 342 346 353 350 346 347 351 354 353 351 351
335 334 334 338 344 346 346 348 349 347 347 349 349 349 348 348 348 344 340 338 339 344 346 341 340 343 342 343 345 346 346 344 344 348 347 345 345 348 354 356 352 351
337 336 333 337 346 349 348 349 348 347 346 347 348 348 348 347 348 348 345 338 334 341 347 343 339 342 342 340 343 344 346 348 348 345 344 346 346 348 354 356 354 353
340 339 335 335 343 348 349 349 348 348 348 347 347 348 348 347 347 349 348 344 339 342 348 347 344 345 345 342 341 341 346 352 353 349 344 344 348 352 356 356 354 352
342 342 339 337 342 345 347 349 349 347 347 348 347 347 348 348 348 347 347 347 345 345 347 348 347 348 348 346 342 338 341 347 352 353 350 347 347 350 355 357 354 349
346 345 342 342 346 347 345 347 347 344 344 346 347 347 347 348 348 346 346 346 346 347 346 347 348 345 346 349 346 339 337 341 347 348 347 347 346 344 348 353 353 348
348 349 347 345 349 350 347 346 346 344 342 342 345 347 346 346 347 347 347 343 342 347 347 347 348 344 341 348 350 344 339 342 348 348 343 342 344 344 345 350 353 350
350 351 351 351 351 350 349 347 346 345 344 341 342 345 345 345 344 346 349 343 336 341 343 341 342 339 336 343 348 345 340 340 345 349 349 347 348 349 350 351 353 353
353 352 353 353 352 350 349 347 345 344 345 343 342 344 344 345 343 342 347 345 335 333 334 331 330 329 329 337 345 345 342 340 342 345 347 348 348 349 351 350 351 353
354 354 354 353 352 351 349 348 346 344 344 345 344 344 343 344 345 343 344 343 335 329 329 327 326 328 326 330 340 346 345 344 344 345 346 347 346 347 348 348 348 350
356 355 355 354 353 353 351 348 347 345 345 344 345 345 343 342 344 345 345 342 334 327 328 329 326 327 327 326 331 340 345 346 346 346 347 347 347 347 347 347 346 348
358 356 356 355 354 355 353 350 348 347 346 345 345 346 345 342 341 343 346 346 340 331 328 330 330 327 327 327 326 329 337 344 345 345 345 346 347 347 347 347 345 346
358 357 357 357 356 356 355 352 350 349 348 346 346 346 346 345 342 341 343 346 347 341 332 332 336 333 327 326 326 326 328 335 341 342 342 344 345 345 345 345 345 344
357 356 356 358 358 357 357 354 351 351 350 348 348 347 348 347 345 342 341 342 347 348 342 337 340 341 335 328 326 325 325 328 334 338 339 339 341 342 342 342 343 344
356 356 356 357 358 359 358 355 351 352 352 351 350 350 349 350 349 347 344 342 344 347 348 345 342 342 340 332 327 326 326 325 327 332 336 335 334 334 336 336 338 341
356 357 357 355 356 358 358 355 350 350 353 353 353 353 352 352 353 352 349 346 345 345 348 348 347 344 342 337 330 326 327 326 327 333 339 339 335 332 331 332 334 337
355 357 357 356 356 357 358 356 352 348 349 352 354 355 355 355 354 354 352 349 348 348 347 348 348 348 347 345 338 330 328 327 328 333 340 343 343 341 337 333 331 332
353 355 356 356 357 357 356 356 355 351 348 349 352 355 356 355 354 353 351 349 348 348 349 349 349 350 350 350 346 340 334 332 329 330 334 339 344 348 347 344 338 331
353 354 355 356 356 357 357 356 356 355 351 349 353 355 356 354 352 351 350 348 347 347 349 350 350 349 350 351 350 346 342 341 339 337 336 336 339 344 347 350 349 344
354 354 355 357 356 356 357 357 357 356 354 353 354 355 356 356 354 352 351 349 349 348 348 351 351 351 350 350 350 349 347 347 347 345 344 342 341 341 343 345 346 346
352 353 354 356 357 356 356 356 357 357 356 357 357 356 355 356 356 356 355 353 353 352 350 350 351 351 351 350 350 349 348 349 349 349 349 349 346 344 344 343 340 339
348 351 353 355 356 357 356 356 356 356 356 357 357 356 355 355 355 355 356 357 357 357 355 354 352 352 351 351 350 350 349 349 349 350 350 351 350 348 347 345 343 341
339 344 348 351 354 356 356 356 355 355 354 355 355 354 353 354 354 353 354 356 357 358 358 357 356 355 354 352 350 349 349 349 349 350 350 351 352 351 350 349 347 345
334 338 341 344 348 352 353 354 355 355 354 353 354 353 351 352 353 352 352 353 355 357 358 358 358 357 356 356 354 352 351 350 350 350 351 351 352 353 353 352 350 348
Wind_Speed
21 20 20 19 17 16 15 14 14 14 14 13 12 11 11 11 11 11 10 9 9 8 8 7 7 6 5 5 5 5 6 7 6 5 5 6 5 5 5 5 5 5
22 21 21 20 19 18 17 15 15 15 15 14 12 12 11 12 12 12 12 11 10 9 9 8 7 7 6 6 5 5 5 6 6 5 5 5 5 5 5 5 6 6
23 23 22 22 21 20 18 17 16 16 15 15 14 13 12 12 13 13 12 11 10 10 9 9 8 8 8 7 6 6 5 6 6 5 5 5 5 5 5 5 6 7
23 23 23 22 21 20 19 18 18 17 16 15 16 15 14 13 13 13 12 12 11 10 10 10 10 9 9 8 8 7 6 6 6 6 6 5 5 5 5 5 6 6
23 23 24 23 22 20 20 20 19 18 17 17 16 16 16 16 14 14 14 13 12 12 11 11 11 10 10 10 9 8 7 7 6 6 6 6 6 5 5 6 7 7
23 23 23 24 23 22 21 21 21 19 18 18 18 17 17 18 17 16 15 14 14 13 12 12 11 11 11 11 11 10 9 8 8 7 7 6 7 6 6 7 7 8
24 23 23 23 23 24 23 22 22 22 20 19 19 19 18 19 20 19 18 16 15 14 14 13 13 13 12 12 12 11 11 10 10 10 9 8 8 8 8 9 9 8
25 23 23 23 23 23 24 24 23 24 23 21 20 20 20 20 20 21 20 19 17 16 16 15 15 15 14 13 13 12 12 11 11 12 11 9 9 9 9 10 10 9
26 24 24 24 23 23 24 24 24 25 25 25 22 21 22 22 21 20 21 22 20 19 18 17 17 18 16 15 14 14 13 12 11 11 11 11 11 11 10 11 11 11
26 25 24 24 24 23 23 24 24 24 25 26 25 23 22 23 23 22 21 23 24 22 21 20 20 20 18 17 17 16 15 14 13 13 13 12 12 12 12 12 12 13
27 26 25 25 25 24 24 24 24 23 24 26 26 25 23 23 24 25 24 24 26 25 24 23 22 22 21 20 18 18 17 15 15 15 14 14 13 13 13 13 14 14
27 26 26 26 26 25 24 24 24 24 24 24 26 26 25 24 24 25 26 27 28 27 26 25 24 23 24 23 21 19 18 18 16 16 15 15 15 14 14 14 14 14
26 27 27 26 26 26 25 24 24 25 24 24 24 25 26 26 25 25 26 28 30 29 28 27 26 25 25 26 25 22 20 19 19 18 17 17 16 16 15 15 15 15
24 25 26 26 26 27 26 25 25 25 25 25 24 25 25 26 26 25 25 26 29 30 30 29 28 28 28 28 28 27 24 22 21 20 19 18 18 18 17 17 17 17
21 22 23 24 25 26 28 28 27 26 26 26 26 25 25 26 26 26 26 26 27 29 31 31 30 30 31 31 30 30 29 26 25 24 23 22 21 20 19 19 19 19
20 21 22 23 24 25 28 30 29 28 28 28 28 27 27 26 26 26 26 26 26 27 29 30 30 30 32 34 33 33 32 30 28 27 26 26 25 24 23 22 21 21
19 21 23 24 23 24 27 29 30 29 29 30 30 29 29 28 27 27 28 27 27 27 28 29 30 30 32 35 34 33 33 32 31 30 29 29 29 28 28 26 24 24
19 21 24 25 24 25 27 28 29 29 29 30 31 31 31 31 30 30 30 29 28 27 28 28 29 30 32 35 36 35 34 33 33 31 29 29 31 31 32 31 29 27
20 22 25 25 24 25 27 27 29 30 30 30 30 30 30 31 32 32 32 32 31 30 29 29 29 30 32 35 36 36 35 34 35 33 30 28 28 30 32 33 33 32
22 24 26 25 23 23 25 27 28 30 30 30 29 29 30 31 32 33 33 34 34 33 33 32 30 30 32 34 36 37 36 35 36 37 36 33 30 29 29 31 33 35
24 24 25 24 23 24 25 26 28 29 29 29 28 27 29 31 31 32 33 34 35 35 35 34 34 33 33 35 37 37 36 34 35 36 38 38 36 34 32 31 31 33
23 24 23 22 22 25 26 26 26 27 27 27 27 26 26 28 29 30 31 32 33 35 35 35 35 34 35 37 39 39 37 34 34 35 37 39 40 39 38 37 36 35
22 24 24 21 20 22 26 27 25 26 26 24 24 25 24 25 26 27 28 30 30 32 34 35 35 35 36 38 39 40 39 37 35 35 36 38 40 41 41 41 42 41
16 21 23 23 19 14 17 24 26 24 24 24 23 23 23 23 25 25 25 26 27 28 31 33 34 35 36 38 39 39 39 39 37 36 37 38 39 40 41 42 43 43
13 14 18 22 22 14 11 18 25 24 22 22 22 22 23 23 24 24 24 24 25 27 28 30 31 32 34 37 38 39 39 39 38 38 38 39 39 40 41 42 43 43
16 14 15 15 18 19 14 12 19 23 21 20 21 22 24 26 26 26 28 28 26 26 27 28 29 31 32 34 36 38 39 38 38 38 39 40 40 40 41 41 42 43
Wind_Direction
210 212 210 209 208 206 205 206 206 204 204 204 203 202 199 199 196 195 203 203 198 196 196 198 197 195 191 191 187 184 187 181 184 203 197 196 204 207 224 223 221 227
209 211 211 210 210 210 207 205 208 207 207 205 202 204 205 205 203 198 201 205 202 199 202 202 201 201 196 196 198 191 195 188 180 197 203 202 207 211 228 228 225 231
212 212 212 210 210 213 210 206 209 209 208 206 202 201 202 206 210 205 202 205 205 203 208 208 204 206 204 203 203 197 200 198 187 202 211 204 205 214 227 228 227 234
212 214 214 211 208 211 210 207 211 211 207 208 207 202 199 204 211 212 209 209 210 207 211 213 210 210 210 207 208 205 204 206 200 204 213 212 208 212 222 227 224 228
212 213 215 213 207 207 209 208 211 213 210 209 209 206 204 204 205 211 215 216 216 213 213 217 215 213 215 211 210 210 209 215 218 213 211 216 221 220 226 235 230 224
213 212 214 215 210 207 209 209 210 211 211 210 208 208 210 209 204 205 212 216 217 212 211 219 219 215 219 219 215 215 215 215 222 231 228 221 226 228 230 241 240 233
214 213 213 215 213 210 210 210 211 211 210 211 211 209 210 213 211 208 208 211 213 211 209 214 219 217 217 222 221 219 220 218 215 224 230 228 230 228 225 236 242 239
215 214 215 215 213 212 213 212 213 214 211 209 212 213 210 212 216 215 212 211 209 211 211 210 219 222 215 216 224 224 223 222 221 225 228 228 233 233 227 232 239 241
213 213 216 217 212 211 214 214 215 217 215 212 210 214 214 214 215 214 216 218 213 211 213 211 216 224 218 212 220 226 223 218 218 230 235 232 235 239 236 234 239 243
212 211 213 214 211 211 213 213 214 216 218 217 213 212 216 218 217 213 214 222 221 215 217 218 220 225 224 218 219 225 225 220 215 221 229 232 233 236 238 237 237 241
212 210 210 211 211 211 213 213 214 214 217 219 217 214 214 217 221 218 213 220 226 223 223 226 228 230 229 223 222 225 227 226 222 222 226 230 232 232 234 236 236 238
213 212 210 211 212 212 213 213 213 214 215 217 219 217 215 215 219 221 217 220 228 230 228 230 231 231 231 227 223 224 227 228 227 229 231 231 234 236 236 239 240 240
212 214 212 213 214 213 214 214 215 215 214 216 218 217 217 216 216 219 220 222 229 233 232 232 233 232 232 230 226 223 225 229 228 229 232 234 236 237 238 241 243 243
213 216 214 214 215 215 215 215 216 217 216 216 217 218 218 218 218 219 220 221 227 233 233 233 234 235 234 232 231 227 226 228 230 230 230 232 235 237 237 239 240 242
214 216 218 216 215 216 218 218 217 218 219 218 218 219 220 219 219 220 221 220 222 229 233 232 231 234 235 234 233 232 232 231 232 233 232 232 233 236 238 238 240 241
222 221 222 220 217 216 219 222 221 218 219 220 220 220 221 221 221 220 221 222 220 223 229 230 227 228 234 236 235 234 236 234 233 234 235 235 234 236 238 239 239 241
234 228 227 224 220 218 220 227 229 223 219 220 221 222 223 222 223 222 221 222 221 222 225 227 227 227 231 236 237 235 235 235 234 234 236 238 239 240 241 242 240 240
239 235 234 232 225 222 224 231 238 234 225 221 220 222 223 223 223 224 224 224 223 223 225 226 228 230 232 237 240 237 234 234 234 234 234 237 241 242 244 245 244 242
241 238 237 236 231 228 229 233 240 242 236 229 224 222 222 224 226 228 229 230 228 226 227 229 230 233 235 238 242 242 238 234 234 234 233 234 237 241 243 245 246 246
242 242 241 240 235 231 232 234 238 242 242 237 231 225 223 225 230 233 236 239 238 233 231 232 232 234 237 240 245 246 242 238 236 236 237 236 234 236 239 241 245 248
241 242 243 245 242 235 234 236 237 240 243 242 234 227 227 232 236 238 241 244 245 241 238 236 235 235 236 240 245 249 248 244 240 239 240 240 238 236 235 236 239 244
245 244 242 246 248 243 238 236 237 240 245 245 240 231 228 233 238 241 242 244 245 245 243 241 238 237 236 238 243 248 250 248 245 243 242 242 242 241 239 238 239 241
253 250 248 247 248 249 246 241 239 241 243 246 246 241 235 233 236 240 242 242 243 244 244 244 242 240 239 240 242 245 247 248 246 244 243 243 243 243 243 243 243 244
272 260 259 258 254 258 255 245 241 242 243 245 247 246 243 241 239 241 243 243 241 241 242 245 245 244 243 243 244 244 246 247 246 245 244 244 244 244 244 244 245 246
320 290 280 271 264 270 271 245 239 243 246 246 247 248 249 247 243 243 245 246 244 243 242 243 244 245 247 248 248 248 248 248 247 246 245 244 244 245 245 245 246 247
346 334 325 308 282 277 282 256 239 242 245 246 246 246 248 247 242 239 240 240 241 243 245 244 244 245 247 249 251 252 252 250 249 247 246 245 245 245 246 246 247 248